This demonstration page uses our WeatherBlox Daily Observations layout. Learn more.

39.92423, -83.80882

Hourly Observations for May 10, 2019

Temp ( °F °C ) Dew Point ( °F °C ) Humidity (%) Winds ( mph kmh ) Pressure ( in mb ) Visibility ( mi km ) Precip ( " mm )
12:41 am 00:41 Cloudy 63 17 63 17 100 100 SSW 7 11 29.88 1012 10 16.0934 0 0.0254
12:56 am 00:56 Cloudy 63 17.2 63 17.2 100 100 SSW 8 13 29.89 1012 10 16.0934 0 0.0254
1:09 am 01:09 Cloudy 63 17 63 17 100 100 SSW 8 13 29.88 1012 10 16.0934 0 0
1:39 am 01:39 Cloudy 63 17 63 17 100 100 SSW 9 15 29.88 1012 10 16.0934 0 0
1:56 am 01:56 Cloudy 63 17.2 63 17.2 100 100 SSW 10 17 29.88 1012 10 16.0934 0 0
2:31 am 02:31 Cloudy 63 17 63 17 100 100 SW 7 11 29.88 1012 7 11.26538 0 0
2:56 am 02:56 Cloudy with Light Rain 63 17.2 63 17.2 100 100 WSW 8 13 29.89 1012 7 11.26538 0 0.0254
3:06 am 03:06 Cloudy with Light Rain 64 18 64 18 100 100 WSW 9 15 29.89 1012 9 14.48406 0 0.0254
3:17 am 03:17 Cloudy 64 18 64 18 100 100 W 10 17 29.89 1012 10 16.0934 0 0.0254
3:56 am 03:56 Cloudy 62 16.7 61 16.1 96 96 W 10 17 29.91 1013 10 16.0934 0 0.0254
3:59 am 03:59 Cloudy 63 17 61 16 94 94 W 10 17 29.9 1013 10 16.0934 0 0
4:14 am 04:14 Cloudy 63 17 61 16 94 94 WNW 10 17 29.91 1013 10 16.0934 0 0
4:38 am 04:38 Cloudy with Light Rain 61 16 61 16 100 100 WNW 7 11 29.92 1013 10 16.0934 0 0.0254
4:56 am 04:56 Cloudy with Light Rain 60 15.6 60 15.6 100 100 WNW 12 19 29.93 1014 10 16.0934 0 0.0254
5:56 am 05:56 Cloudy 58 14.4 57 13.9 97 97 WNW 7 11 29.94 1014 10 16.0934 0.01 0.254
6:56 am 06:56 Cloudy 55 12.8 55 12.8 100 100 WNW 12 19 29.98 1015 8 12.87472 0 0
7:56 am 07:56 Cloudy 55 12.8 54 12.2 96 96 W 9 15 30 1016 10 16.0934 0 0
8:09 am 08:09 Cloudy 55 13 54 12 94 94 W 12 19 30 1016 10 16.0934 0 0
8:56 am 08:56 Cloudy 56 13.3 53 11.7 90 90 W 12 19 30.02 1017 10 16.0934 0 0
9:32 am 09:32 Cloudy 54 12 52 11 94 94 WNW 13 20 30.03 1017 10 16.0934 0 0
9:56 am 09:56 Cloudy 53 11.7 51 10.6 93 93 WNW 9 15 30.04 1017 10 16.0934 0 0
10:32 am 10:32 Cloudy 54 12 50 10 88 88 WNW 14 22 30.06 1018 10 16.0934 0 0
10:56 am 10:56 Cloudy 52 11.1 49 9.4 89 89 WNW 13 20 30.08 1019 10 16.0934 0 0
11:56 am 11:56 Cloudy 52 11.1 48 8.9 86 86 WNW 13 20 30.09 1019 10 16.0934 0 0
12:35 pm 12:35 Cloudy 54 12 48 9 82 82 W 13 20 30.08 1019 10 16.0934 0 0
12:56 pm 12:56 Cloudy 55 12.8 48 8.9 77 77 WNW 12 19 30.08 1019 10 16.0934 0 0
1:56 pm 13:56 Cloudy 55 12.8 48 8.9 77 77 WNW 15 24 30.09 1019 10 16.0934 0 0
2:56 pm 14:56 Cloudy 56 13.3 47 8.3 72 72 NW 10 17 30.1 1019 10 16.0934 0 0
3:56 pm 15:56 Cloudy 56 13.3 47 8.3 72 72 NW 9 15 30.11 1020 10 16.0934 0 0
4:56 pm 16:56 Cloudy 55 12.8 46 7.8 72 72 NNW 12 19 30.11 1020 10 16.0934 0 0
5:10 pm 17:10 Cloudy 54 12 46 8 77 77 NNW 15 24 30.1 1019 10 16.0934 0 0
5:56 pm 17:56 Cloudy 54 12.2 46 7.8 75 75 NNW 10 17 30.13 1020 10 16.0934 0 0
6:08 pm 18:08 Cloudy 54 12 46 8 77 77 NW 13 20 30.12 1020 10 16.0934 0 0
6:43 pm 18:43 Cloudy 54 12 46 8 77 77 NW 12 19 30.12 1020 10 16.0934 0 0
6:56 pm 18:56 Partly Cloudy 53 11.7 46 7.8 77 77 NW 10 17 30.13 1020 10 16.0934 0 0
7:56 pm 19:56 Sunny 52 11.1 44 6.7 75 75 NW 9 15 30.14 1021 10 16.0934 0 0
8:56 pm 20:56 Clear 49 9.4 45 7.2 86 86 NNW 7 11 30.14 1021 10 16.0934 0 0
9:56 pm 21:56 Clear 49 9.4 45 7.2 86 86 NW 5 7 30.15 1021 10 16.0934 0 0
10:18 pm 22:18 Mostly Cloudy 48 9 45 7 87 87 NW 3 6 30.16 1021 10 16.0934 0 0
10:56 pm 22:56 Cloudy 50 10 45 7.2 83 83 NNW 5 7 30.16 1021 10 16.0934 0 0
11:56 pm 23:56 Cloudy 48 8.9 44 6.7 86 86 NNW 7 11 30.15 1021 10 16.0934 0 0

Powered by AerisWeather